• In Netherlands
  • List of Countries
  • For 7 days
  • Water Temperature
  • Satellite Maps
  • Weather Map
  • Weather Widgets
  • user-avatar
    Login

    Hourly Weather Yeghegnadzor

    Today, 21 September, Thursday

    Time Temperature Precipitation Wind Pressure Humidity
    00:00 +21°C° 0 mm 1 mps 656 mmHg 31%
    01:00 +21°C° 0 mm 1 mps 655 mmHg 29%
    02:00 +21°C° 0 mm 1 mps 655 mmHg 28%
    03:00 +20°C° 0 mm 1 mps 655 mmHg 27%
    04:00 +20°C° 0 mm 1 mps 655 mmHg 26%
    05:00 +20°C° 0 mm 1 mps 655 mmHg 26%
    06:00 +19°C° 0 mm 1 mps 655 mmHg 26%
    07:00 +22°C° 0 mm 1 mps 656 mmHg 24%
    08:00 +25°C° 0 mm 1 mps 656 mmHg 22%
    09:00 +27°C° 0 mm 1 mps 657 mmHg 21%
    10:00 +28°C° 0 mm 1 mps 657 mmHg 20%
    11:00 +29°C° 0 mm 2 mps 657 mmHg 19%
    12:00 +30°C° 0 mm 2 mps 656 mmHg 18%
    13:00 +30°C° 0 mm 2 mps 656 mmHg 19%
    14:00 +30°C° 0 mm 2 mps 656 mmHg 19%
    15:00 +30°C° 0 mm 1 mps 655 mmHg 19%
    16:00 +29°C° 0 mm 1 mps 655 mmHg 22%
    17:00 +27°C° 0 mm 1 mps 654 mmHg 25%
    18:00 +25°C° 0 mm 1 mps 654 mmHg 29%
    19:00 +25°C° 0 mm 1 mps 654 mmHg 30%
    20:00 +24°C° 0 mm 2 mps 654 mmHg 32%
    21:00 +23°C° 0 mm 2 mps 654 mmHg 34%
    22:00 +23°C° 0 mm 2 mps 654 mmHg 35%
    23:00 +23°C° 0 mm 2 mps 654 mmHg 35%

    Tomorrow, 22 September, Friday

    Time Temperature Precipitation Wind Pressure Humidity
    00:00 +21°C° 0 mm 2 mps 654 mmHg 35%
    01:00 +21°C° 0 mm 2 mps 654 mmHg 35%
    02:00 +20°C° 0 mm 2 mps 654 mmHg 35%
    03:00 +20°C° 0 mm 2 mps 654 mmHg 35%
    04:00 +19°C° 0 mm 2 mps 654 mmHg 35%
    05:00 +19°C° 0 mm 2 mps 654 mmHg 35%
    06:00 +19°C° 0 mm 2 mps 654 mmHg 34%
    07:00 +21°C° 0 mm 2 mps 654 mmHg 31%
    08:00 +25°C° 0 mm 1 mps 655 mmHg 28%
    09:00 +27°C° 0 mm 1 mps 655 mmHg 24%
    10:00 +28°C° 0 mm 2 mps 655 mmHg 22%
    11:00 +29°C° 0 mm 2 mps 655 mmHg 21%
    12:00 +30°C° 0 mm 3 mps 655 mmHg 19%
    13:00 +30°C° 0 mm 3 mps 654 mmHg 19%
    14:00 +31°C° 0 mm 3 mps 654 mmHg 19%
    15:00 +31°C° 0 mm 3 mps 654 mmHg 18%
    16:00 +29°C° 0 mm 2 mps 653 mmHg 22%
    17:00 +27°C° 0 mm 2 mps 653 mmHg 26%
    18:00 +26°C° 0 mm 1 mps 652 mmHg 30%
    19:00 +25°C° 0 mm 1 mps 653 mmHg 33%
    20:00 +25°C° 0 mm 2 mps 653 mmHg 36%
    21:00 +24°C° 0 mm 2 mps 654 mmHg 38%
    22:00 +24°C° 0.1 mm 2 mps 654 mmHg 41%
    23:00 +23°C° 0.1 mm 2 mps 654 mmHg 44%

    Day after tomorrow, 23 September, Saturday

    Time Temperature Precipitation Wind Pressure Humidity
    00:00 +21°C° 0.1 mm 2 mps 654 mmHg 47%
    01:00 +21°C° 0 mm 2 mps 653 mmHg 50%
    02:00 +20°C° 0 mm 2 mps 653 mmHg 53%
    03:00 +19°C° 0 mm 2 mps 653 mmHg 56%
    04:00 +19°C° 0 mm 2 mps 653 mmHg 57%
    05:00 +18°C° 0 mm 2 mps 654 mmHg 58%
    06:00 +18°C° 0 mm 2 mps 654 mmHg 59%
    07:00 +20°C° 0 mm 2 mps 654 mmHg 50%
    08:00 +23°C° 0 mm 2 mps 655 mmHg 42%
    09:00 +25°C° 0 mm 1 mps 656 mmHg 33%
    10:00 +26°C° 0 mm 2 mps 656 mmHg 31%
    11:00 +27°C° 0 mm 2 mps 656 mmHg 28%
    12:00 +28°C° 0 mm 2 mps 656 mmHg 25%
    13:00 +28°C° 0.1 mm 2 mps 655 mmHg 25%
    14:00 +28°C° 0.1 mm 2 mps 655 mmHg 25%
    15:00 +29°C° 0.1 mm 2 mps 655 mmHg 24%
    16:00 +27°C° 0 mm 2 mps 655 mmHg 29%
    17:00 +25°C° 0 mm 1 mps 654 mmHg 33%
    18:00 +24°C° 0 mm 1 mps 654 mmHg 37%
    19:00 +23°C° 0 mm 1 mps 655 mmHg 42%
    20:00 +21°C° 0 mm 2 mps 655 mmHg 47%
    21:00 +20°C° 0 mm 2 mps 655 mmHg 51%
    22:00 +20°C° 0 mm 2 mps 655 mmHg 53%
    23:00 +19°C° 0 mm 2 mps 655 mmHg 55%

    24 September, Sunday

    Time Temperature Precipitation Wind Pressure Humidity
    00:00 +19°C° 0 mm 2 mps 655 mmHg 57%
    01:00 +18°C° 0 mm 2 mps 655 mmHg 57%
    02:00 +18°C° 0 mm 2 mps 655 mmHg 57%
    03:00 +18°C° 0 mm 2 mps 655 mmHg 57%
    04:00 +17°C° 0 mm 2 mps 655 mmHg 57%
    05:00 +17°C° 0 mm 2 mps 655 mmHg 57%
    06:00 +17°C° 0 mm 2 mps 655 mmHg 57%
    07:00 +19°C° 0 mm 2 mps 656 mmHg 49%
    08:00 +21°C° 0 mm 2 mps 657 mmHg 42%
    09:00 +24°C° 0 mm 2 mps 657 mmHg 34%
    10:00 +25°C° 0 mm 2 mps 657 mmHg 31%
    11:00 +27°C° 0 mm 2 mps 657 mmHg 28%
    12:00 +28°C° 0 mm 2 mps 657 mmHg 25%
    13:00 +28°C° 0 mm 2 mps 657 mmHg 25%
    14:00 +28°C° 0 mm 2 mps 657 mmHg 24%
    15:00 +28°C° 0 mm 2 mps 656 mmHg 24%
    16:00 +26°C° 0 mm 2 mps 656 mmHg 29%
    17:00 +25°C° 0 mm 2 mps 656 mmHg 34%
    18:00 +23°C° 0 mm 1 mps 655 mmHg 40%
    19:00 +22°C° 0 mm 1 mps 656 mmHg 44%
    20:00 +20°C° 0 mm 2 mps 656 mmHg 49%
    21:00 +19°C° 0 mm 2 mps 656 mmHg 54%
    22:00 +19°C° 0 mm 2 mps 656 mmHg 55%
    23:00 +19°C° 0 mm 2 mps 656 mmHg 55%

    25 September, Monday

    Time Temperature Precipitation Wind Pressure Humidity
    00:00 +18°C° 0 mm 2 mps 656 mmHg 56%
    01:00 +18°C° 0 mm 2 mps 656 mmHg 56%
    02:00 +17°C° 0 mm 2 mps 656 mmHg 56%
    03:00 +17°C° 0 mm 2 mps 656 mmHg 56%
    04:00 +18°C° 0 mm 1 mps 656 mmHg 56%
    05:00 +16°C° 0 mm 1 mps 656 mmHg 56%
    06:00 +16°C° 0 mm 1 mps 656 mmHg 56%
    07:00 +19°C° 0 mm 1 mps 656 mmHg 48%
    08:00 +22°C° 0 mm 1 mps 657 mmHg 40%
    09:00 +24°C° 0 mm 1 mps 658 mmHg 33%
    10:00 +25°C° 0 mm 2 mps 657 mmHg 30%
    11:00 +26°C° 0 mm 2 mps 657 mmHg 27%
    12:00 +27°C° 0 mm 2 mps 657 mmHg 24%
    13:00 +28°C° 0 mm 2 mps 657 mmHg 23%
    14:00 +28°C° 0 mm 2 mps 657 mmHg 22%
    15:00 +28°C° 0 mm 2 mps 656 mmHg 21%
    16:00 +26°C° 0 mm 2 mps 656 mmHg 25%
    17:00 +24°C° 0 mm 1 mps 656 mmHg 30%
    18:00 +22°C° 0 mm 1 mps 655 mmHg 35%
    19:00 +22°C° 0 mm 1 mps 656 mmHg 39%
    20:00 +20°C° 0 mm 2 mps 656 mmHg 44%
    21:00 +20°C° 0 mm 2 mps 656 mmHg 48%
    22:00 +19°C° 0 mm 2 mps 656 mmHg 47%
    23:00 +19°C° 0 mm 2 mps 656 mmHg 45%

    26 September, Tuesday

    Time Temperature Precipitation Wind Pressure Humidity
    00:00 +18°C° 0 mm 2 mps 656 mmHg 44%
    01:00 +18°C° 0 mm 2 mps 656 mmHg 42%
    02:00 +18°C° 0 mm 2 mps 656 mmHg 39%
    03:00 +19°C° 0 mm 1 mps 656 mmHg 37%
    04:00 +18°C° 0 mm 1 mps 656 mmHg 34%
    05:00 +18°C° 0 mm 1 mps 656 mmHg 32%
    06:00 +18°C° 0 mm 1 mps 656 mmHg 30%
    07:00 +20°C° 0 mm 1 mps 656 mmHg 29%
    08:00 +23°C° 0 mm 2 mps 657 mmHg 28%
    09:00 +25°C° 0 mm 2 mps 658 mmHg 26%
    10:00 +26°C° 0 mm 2 mps 657 mmHg 25%
    11:00 +28°C° 0 mm 3 mps 657 mmHg 24%
    12:00 +29°C° 0 mm 3 mps 657 mmHg 22%
    13:00 +29°C° 0 mm 4 mps 657 mmHg 22%
    14:00 +30°C° 0 mm 4 mps 657 mmHg 22%
    15:00 +30°C° 0 mm 4 mps 656 mmHg 22%
    16:00 +28°C° 0.2 mm 3 mps 656 mmHg 27%
    17:00 +26°C° 0.2 mm 3 mps 656 mmHg 32%
    18:00 +24°C° 0.2 mm 2 mps 656 mmHg 37%
    19:00 +24°C° 0 mm 2 mps 656 mmHg 38%
    20:00 +23°C° 0 mm 2 mps 656 mmHg 39%
    21:00 +21°C° 0 mm 2 mps 656 mmHg 40%
    22:00 +21°C° 0 mm 2 mps 656 mmHg 39%
    23:00 +20°C° 0 mm 2 mps 656 mmHg 39%
    Show more